This is the latest recevied weather packets stored in our database for station/object YF9UAG-15. If no packets are shown the sender has not sent any weather packets the latest 10 day(s).
| Time | Temp. | Humidity | Pressure | Rain* | Wind** | Luminosity | Snow |
|---|---|---|---|---|---|---|---|
| 1778106321 | 30.56° C | 100% | 1008 hPa | - | - | - | - |
| 1778106200 | 30° C | 100% | 1008 hPa | - | - | - | - |
| 1778106079 | 29.44° C | 100% | 1007.9 hPa | - | - | - | - |
| 1778105958 | 30.56° C | 100% | 1007.8 hPa | - | - | - | - |
| 1778105837 | 30° C | 100% | 1007.9 hPa | - | - | - | - |
| 1778105716 | 30.56° C | 100% | 1007.7 hPa | - | - | - | - |
| 1778105595 | 30.56° C | 100% | 1007.6 hPa | - | - | - | - |
| 1778105474 | 30° C | 100% | 1007.7 hPa | - | - | - | - |
| 1778105353 | 29.44° C | 100% | 1007.8 hPa | - | - | - | - |
| 1778105232 | 28.89° C | 100% | 1007.8 hPa | - | - | - | - |
| 1778105111 | 29.44° C | 100% | 1007.7 hPa | - | - | - | - |
| 1778104990 | 30° C | 100% | 1007.7 hPa | - | - | - | - |
| 1778104869 | 30.56° C | 99% | 1007.5 hPa | - | - | - | - |
| 1778104748 | 30.56° C | 99% | 1007.5 hPa | - | - | - | - |
| 1778104627 | 30° C | 100% | 1007.5 hPa | - | - | - | - |
| 1778104507 | 30° C | 100% | 1007.5 hPa | - | - | - | - |
| 1778104386 | 28.89° C | 100% | 1007.6 hPa | - | - | - | - |
| 1778104265 | 28.33° C | 100% | 1007.4 hPa | - | - | - | - |
| 1778104144 | 28.89° C | 100% | 1007.5 hPa | - | - | - | - |
| 1778104023 | 29.44° C | 100% | 1007.5 hPa | - | - | - | - |
| 1778103902 | 29.44° C | 100% | 1007.5 hPa | - | - | - | - |
| 1778103781 | 29.44° C | 100% | 1007.4 hPa | - | - | - | - |
| 1778103660 | 28.89° C | 100% | 1007.4 hPa | - | - | - | - |
| 1778103539 | 29.44° C | 100% | 1007.3 hPa | - | - | - | - |
| 1778103418 | 28.89° C | 100% | 1007.4 hPa | - | - | - | - |
* Rain since midnight (hover to see other rain measurements)
** Current wind speed in m/s (hover to see current wind gust speed)